Content
SEND FEEDBACK

Daily
Averages
Monthly
Summary
United States of America

WILMINGTON, NORTH CAROLINA


Home > North America > United States > North Carolina
Elevation: 72 feet     Latitude: 34 16N     Longitude: 077 54W

WEATHER
 
SELECT A DAY
Number of Records: 209,043;   Date Range: 1/1/95 - 9/3/14
 
SHARE

PRINT THIS DATA

[ ← Previous Day ]
WEATHER ALMANAC - MARCH 6, 2014
[ Next Day → ]
[ °C ]   °F
Weather ElementAverageHighLow
Temperature40 °F46 °F (11:53 pm)34 °F (4:53 am)
Dewpoint35.3 °F43 °F (11:53 pm)28 °F (4:53 am)
Humidity83.6 %90 % (10:53 pm)70 % (8:53 am)
Barometer30.16 in30.26 in (7:53 am)29.85 in (11:53 pm)
Wind Speed17.6 mph26.5 mph (11:53 pm)
Wind Gust38 mph (9:53 pm)
Weather ElementAverage
Visibility5.7 mi
Wind DirectionNE (43.8 °)

Weather ElementTotal
Precipitation1.29 in
Heating Degree Days25 (Base 65)
Averaged from 34 records on March 6, 2014
WEATHER CONDITIONS BREAKOUT
WIND DIRECTION BREAKOUT
WEATHER BY HOUR - MARCH 6, 2014
[ °C ]   °F
Local TimeTemperatureDewpointHumidityBarometerVisibilityWind DirectionWind SpeedGust SpeedPrecipitationEventsConditions
1:06 AM39.0 °F32.0 °F76 %30.24 in10.0 miNNE (20°)12.7 mphOvercast
1:53 AM37.0 °F30.9 °F79 %30.24 in10.0 miNNE (30°)12.7 mphMostly Cloudy
2:53 AM36.0 °F30.0 °F79 %30.22 in10.0 miNNE (30°)11.5 mphClear
3:53 AM35.1 °F28.9 °F78 %30.21 in10.0 miNNE (30°)12.7 mphClear
4:53 AM34.0 °F28.0 °F79 %30.22 in10.0 miNNE (30°)12.7 mphClear
5:53 AM34.0 °F28.0 °F79 %30.24 in10.0 miNNE (30°)12.7 mphClear
6:53 AM34.0 °F28.0 °F79 %30.25 in9.0 miNNE (30°)15.0 mphOvercast
7:53 AM36.0 °F28.9 °F76 %30.26 in9.0 miNNE (20°)13.8 mph23.0 mphOvercast
8:53 AM39.0 °F30.0 °F70 %30.26 in10.0 miNNE (30°)23.0 mphOvercast
9:11 AM39.0 °F30.0 °F70 %30.26 in10.0 miNNE (30°)18.4 mph25.3 mphOvercast
9:53 AM39.9 °F30.9 °F70 %30.25 in10.0 miNNE (30°)15.0 mph24.2 mphOvercast
10:51 AM39.2 °F33.8 °F81 %30.24 in2.5 miNorth (10°)15.0 mph23.0 mph0.01 inRainLight Rain
10:53 AM39.0 °F34.0 °F82 %30.24 in3.0 miNorth (10°)12.7 mph21.9 mph0.01 inRainLight Rain
11:06 AM39.0 °F34.0 °F82 %30.25 in3.0 miNorth (10°)13.8 mph23.0 mph0.00 inRainLight Rain
11:43 AM39.0 °F35.1 °F86 %30.25 in7.0 miNorth (350°)10.4 mph18.4 mph0.00 inOvercast
11:53 AM39.9 °F36.0 °F86 %30.24 in5.0 miNorth (360°)12.7 mph0.00 inRainLight Rain
12:17 PM39.9 °F36.0 °F86 %30.23 in4.0 miNorth (10°)15.0 mph0.00 inRainLight Rain
12:46 PM39.9 °F37.0 °F89 %30.22 in2.0 miNorth (10°)15.0 mph0.01 inRainRain
12:53 PM39.9 °F37.0 °F89 %30.21 in2.0 miNorth (10°)13.8 mph0.03 inRainLight Rain
1:22 PM41.0 °F37.9 °F89 %30.19 in3.0 miNNE (20°)18.4 mph0.03 inRainLight Rain
1:53 PM42.1 °F37.9 °F85 %30.16 in3.0 miNorth (10°)18.4 mph0.05 inRainLight Rain
2:32 PM42.1 °F39.0 °F89 %30.13 in2.0 miNNE (20°)20.7 mph29.9 mph0.06 inRainRain
2:53 PM43.0 °F39.0 °F86 %30.12 in2.0 miNNE (30°)19.6 mph28.8 mph0.11 inRainRain
3:18 PM43.0 °F39.9 °F89 %30.12 in3.0 miNNE (20°)17.3 mph0.06 inRainRain
3:53 PM43.0 °F39.9 °F89 %30.11 in4.0 miNNE (30°)20.7 mph0.13 inRainLight Rain
4:43 PM43.0 °F39.9 °F89 %30.10 in2.5 miNNE (30°)20.7 mph27.6 mph0.08 inRainRain
4:53 PM43.0 °F39.9 °F89 %30.09 in3.0 miNNE (30°)21.9 mph31.1 mph0.11 inRainLight Rain
5:53 PM43.0 °F39.0 °F86 %30.08 in4.0 miNNE (30°)24.2 mph27.6 mph0.07 inRainLight Rain
6:53 PM42.1 °F39.0 °F89 %30.04 in4.0 miNNE (30°)25.3 mph29.9 mph0.08 inRainRain
7:53 PM41.0 °F37.9 °F89 %30.03 in4.0 miNNE (30°)21.9 mph34.5 mph0.09 inRainRain
8:53 PM41.0 °F37.9 °F89 %30.00 in4.0 miNNE (30°)23.0 mph32.2 mph0.15 inRainRain
9:53 PM42.1 °F39.0 °F89 %29.94 in9.0 miNNE (30°)25.3 mph38.0 mph0.08 inRainLight Rain
10:53 PM45.0 °F42.1 °F90 %29.91 in4.0 miNE (40°)25.3 mph33.4 mph0.04 inRainRain
11:53 PM46.0 °F43.0 °F89 %29.85 in5.0 miNNE (30°)26.5 mph35.7 mph0.09 inRainRain
Hourly data recorded from KILM, located miles away from Wilmington, North Carolina







STORIES FROM OUR PARTNERS